Weather History for Ithaca, NY

Change the Weather History Date:

Tuesday, June 24, 2014

  Actual Average Record
Temperature  
Mean Temperature 75 °F -  
Max Temperature 81 °F 75 °F 91 °F (1938)
Min Temperature 68 °F 54 °F 41 °F (1953)
Cooling Degree Days 10    
Growing Degree Days 25 (Base 50)    
Moisture  
Dew Point 64 °F    
Average Humidity 75    
Maximum Humidity 93    
Minimum Humidity 62    
Precipitation  
Precipitation 0.03 in - - ()
Sea Level Pressure  
Sea Level Pressure 30.00 in    
Wind  
Wind Speed 11 mph (South)    
Max Wind Speed 22 mph    
Max Gust Speed 38 mph    
Visibility 9 miles    
Events Rain , Thunderstorm    
Averages and records for this station are not official NWS values.
T = Trace of Precipitation, MM = Missing Value Source: NWS Daily Summary

Daily Weather History Graph

Daily Weather History Graph

Search for Another Location

Airport:

Trip Planner

Search our weather history database for the weather conditions in past years. The results will help you decide how hot, cold, wet, or windy it might be!

Date:

Astronomy

Jun. 24, 2014 Rise Set
Actual Time 5:29 AM EDT 8:47 PM EDT
Civil Twilight 4:54 AM EDT 9:22 PM EDT
Nautical Twilight 4:09 AM EDT 10:07 PM EDT
Astronomical Twilight 3:13 AM EDT 11:02 PM EDT
Moon 3:37 AM EDT (6/24) 6:21 PM EDT (6/24)
Length of Visible Light 16h 27m
Length of Day
15h 17m
Waning Crescent, 7% of the Moon is Illuminated
Jun 24
Waning Crescent
Jun 27
New
Jul 5
First Quarter
Jul 12
Full
Jul 18
Last Quarter

Hourly Weather History & Observations

Time (EDT) Temp. Heat Index Dew Point Humidity Pressure Visibility Wind Dir Wind Speed Gust Speed Precip Events Conditions
12:56 AM 70.9 °F - 59.9 °F 68% 30.04 in 10.0 mi South 10.4 mph - N/A   Partly Cloudy
1:56 AM 70.0 °F - 59.0 °F 68% 30.04 in 10.0 mi South 11.5 mph - N/A   Mostly Cloudy
2:56 AM 68.9 °F - 59.0 °F 71% 30.03 in 10.0 mi South 13.8 mph - 0.00 in Rain Light Rain
3:56 AM 68.9 °F - 59.0 °F 71% 30.03 in 10.0 mi South 12.7 mph - 0.00 in   Overcast
4:56 AM 68.9 °F - 59.0 °F 71% 30.02 in 10.0 mi South 11.5 mph - N/A   Mostly Cloudy
5:56 AM 68.9 °F - 59.0 °F 71% 30.02 in 10.0 mi South 10.4 mph - N/A   Mostly Cloudy
6:25 AM 69.8 °F - 59.0 °F 68% 30.04 in 10.0 mi South 11.5 mph - N/A   Mostly Cloudy
6:56 AM 68.0 °F - 59.0 °F 73% 30.03 in 10.0 mi South 9.2 mph - N/A   Mostly Cloudy
7:56 AM 68.9 °F - 59.9 °F 73% 30.03 in 10.0 mi South 8.1 mph - N/A   Mostly Cloudy
8:56 AM 68.9 °F - 59.9 °F 73% 30.05 in 10.0 mi SSE 6.9 mph - N/A   Mostly Cloudy
9:56 AM 70.0 °F - 61.0 °F 73% 30.05 in 10.0 mi SSE 10.4 mph - N/A   Mostly Cloudy
10:56 AM 70.9 °F - 63.0 °F 76% 30.04 in 10.0 mi South 6.9 mph - N/A   Mostly Cloudy
11:56 AM 70.0 °F - 63.0 °F 78% 30.05 in 10.0 mi South 10.4 mph - 0.00 in   Mostly Cloudy
12:56 PM 68.9 °F - 65.8 °F 90% 30.02 in 10.0 mi South 12.7 mph - 0.00 in Rain Light Rain Showers
1:56 PM 72.9 °F - 65.8 °F 79% 30.01 in 10.0 mi South 12.7 mph - 0.00 in   Mostly Cloudy
2:56 PM 75.9 °F - 66.9 °F 74% 29.99 in 10.0 mi South 10.4 mph - N/A   Scattered Clouds
4:04 PM 80.6 °F 83.2 °F 68.0 °F 65% 29.98 in 10.0 mi South 8.1 mph - N/A   Mostly Cloudy
4:18 PM 82.4 °F 85.4 °F 68.0 °F 62% 29.97 in 10.0 mi South 11.5 mph - N/A   Scattered Clouds
4:56 PM 81.9 °F 85.2 °F 68.9 °F 65% 29.93 in 10.0 mi South 12.7 mph - N/A   Partly Cloudy
5:56 PM 81.9 °F 84.8 °F 68.0 °F 63% 29.92 in 10.0 mi South 10.4 mph 19.6 mph N/A   Mostly Cloudy
6:56 PM 81.0 °F 83.8 °F 68.0 °F 65% 29.93 in 8.0 mi South 12.7 mph - N/A   Mostly Cloudy
7:56 PM 77.9 °F - 66.9 °F 69% 29.93 in 8.0 mi South 10.4 mph - N/A   Mostly Cloudy
8:14 PM 78.8 °F - 69.8 °F 74% 29.97 in 2.5 mi South 15.0 mph 19.6 mph 0.00 in Rain , Thunderstorm Light Thunderstorms and Rain
8:23 PM 73.4 °F - 69.8 °F 88% 29.98 in 2.5 mi SSW 21.9 mph 38.0 mph 0.02 in Rain , Thunderstorm Light Thunderstorms and Rain
8:56 PM 70.0 °F - 66.9 °F 90% 29.95 in 10.0 mi South 12.7 mph - 0.03 in Rain Light Rain
9:56 PM 70.0 °F - 66.9 °F 90% 29.96 in 10.0 mi SSE 5.8 mph - 0.00 in   Mostly Cloudy
10:56 PM 68.9 °F - 66.9 °F 93% 29.95 in 10.0 mi SSE 8.1 mph - N/A   Partly Cloudy
11:56 PM 70.0 °F - 68.0 °F 93% 29.95 in 10.0 mi South 4.6 mph - N/A Thunderstorm Partly Cloudy